AAL715 KSLC-KBOI

Flight info

Callsign AAL715
Flight time 0h 42m
Altitude 34000
Route CGULL1 TWF BROPH SPUUD4
Aircraft A320/M-SDE3FGHIRWY/LB1

Departure

Time 2026-05-08 05:03
Airport Salt Lake City International Airport (KSLC)

Arrival

Time 2026-05-08 05:46
Airport Boise Air Terminal/Gowen Field (KBOI)
Time Latitude Longitude Altitude Speed Heading
2026-05-08 04:43 40.78633 -111.98267 4231 ft 0 kts 174°
2026-05-08 04:52 40.78645 -111.98269 4230 ft 4 kts 174°
2026-05-08 04:52 40.78672 -111.98272 4231 ft 4 kts 173°
2026-05-08 04:52 40.78698 -111.98280 4231 ft 4 kts 152°
2026-05-08 04:53 40.78716 -111.98301 4231 ft 4 kts 106°
2026-05-08 04:53 40.78718 -111.98319 4231 ft 1 kts 85°
2026-05-08 04:53 40.78717 -111.98321 4231 ft 0 kts 85°
2026-05-08 04:56 40.78728 -111.98268 4231 ft 12 kts 68°
2026-05-08 04:56 40.78768 -111.98165 4231 ft 13 kts 63°
2026-05-08 04:57 40.78775 -111.98045 4231 ft 14 kts 100°
2026-05-08 04:57 40.78759 -111.97914 4231 ft 15 kts 98°
2026-05-08 04:57 40.78753 -111.97804 4231 ft 9 kts 90°
2026-05-08 04:57 40.78753 -111.97718 4231 ft 9 kts 107°
2026-05-08 04:58 40.78701 -111.97676 4231 ft 10 kts 179°
2026-05-08 04:58 40.78627 -111.97667 4231 ft 11 kts 174°
2026-05-08 04:58 40.78543 -111.97656 4231 ft 13 kts 175°
2026-05-08 04:58 40.78449 -111.97645 4231 ft 14 kts 175°
2026-05-08 04:59 40.78345 -111.97633 4230 ft 16 kts 175°
2026-05-08 04:59 40.78233 -111.97621 4231 ft 17 kts 175°
2026-05-08 04:59 40.78113 -111.97609 4230 ft 18 kts 175°
2026-05-08 04:59 40.77986 -111.97593 4254 ft 17 kts 174°
2026-05-08 05:00 40.77901 -111.97556 4253 ft 11 kts 150°
2026-05-08 05:00 40.77832 -111.97526 4253 ft 10 kts 173°
2026-05-08 05:00 40.77770 -111.97518 4253 ft 9 kts 175°
2026-05-08 05:00 40.77689 -111.97509 4254 ft 13 kts 174°
2026-05-08 05:01 40.77598 -111.97498 4255 ft 12 kts 174°
2026-05-08 05:01 40.77558 -111.97472 4255 ft 6 kts 123°
2026-05-08 05:01 40.77556 -111.97430 4255 ft 4 kts 84°
2026-05-08 05:01 40.77561 -111.97380 4255 ft 6 kts 76°
2026-05-08 05:02 40.77581 -111.97340 4255 ft 4 kts 45°
2026-05-08 05:02 40.77615 -111.97332 4255 ft 11 kts
2026-05-08 05:02 40.77926 -111.97371 4254 ft 81 kts 354°
2026-05-08 05:02 40.78700 -111.97469 4232 ft 140 kts 355°
2026-05-08 05:03 40.79846 -111.97608 4238 ft 187 kts 354°
2026-05-08 05:03 40.81166 -111.97820 4801 ft 194 kts 343°
2026-05-08 05:03 40.82390 -111.98616 5451 ft 201 kts 322°
2026-05-08 05:03 40.83332 -111.99989 6153 ft 204 kts 300°
2026-05-08 05:04 40.83900 -112.01663 6766 ft 205 kts 295°
2026-05-08 05:04 40.84648 -112.03373 6942 ft 226 kts 297°
2026-05-08 05:04 40.85463 -112.05283 7085 ft 251 kts 304°
2026-05-08 05:04 40.86536 -112.07228 7420 ft 270 kts 308°
2026-05-08 05:05 40.87721 -112.09199 8173 ft 276 kts 308°
2026-05-08 05:05 40.88928 -112.11181 9021 ft 278 kts 308°
2026-05-08 05:05 40.90133 -112.13187 9902 ft 279 kts 308°
2026-05-08 05:05 40.91361 -112.15266 10306 ft 298 kts 307°
2026-05-08 05:06 40.92676 -112.17525 10511 ft 322 kts 307°
2026-05-08 05:06 40.94080 -112.19962 10686 ft 343 kts 307°
2026-05-08 05:06 40.95541 -112.22515 11211 ft 351 kts 307°
2026-05-08 05:06 40.97015 -112.25104 11975 ft 353 kts 306°
2026-05-08 05:07 40.98495 -112.27705 12741 ft 355 kts 306°
2026-05-08 05:07 40.99988 -112.30318 13500 ft 356 kts 306°
2026-05-08 05:07 41.01486 -112.32934 14185 ft 358 kts 306°
2026-05-08 05:07 41.02997 -112.35577 14784 ft 362 kts 306°
2026-05-08 05:08 41.04519 -112.38250 15381 ft 365 kts 306°
2026-05-08 05:08 41.06073 -112.40927 15974 ft 369 kts 310°
2026-05-08 05:08 41.07903 -112.43272 16545 ft 373 kts 321°
2026-05-08 05:08 41.10077 -112.45203 17154 ft 377 kts 327°
2026-05-08 05:09 41.12311 -112.47061 17740 ft 381 kts 327°
2026-05-08 05:09 41.14560 -112.48940 18309 ft 384 kts 327°
2026-05-08 05:09 41.16826 -112.50850 18810 ft 387 kts 326°
2026-05-08 05:09 41.19054 -112.52886 19310 ft 390 kts 323°
2026-05-08 05:10 41.21238 -112.55058 19798 ft 393 kts 322°
2026-05-08 05:10 41.25565 -112.59596 20731 ft 400 kts 321°
2026-05-08 05:10 41.27721 -112.61961 21173 ft 403 kts 317°
2026-05-08 05:11 41.29645 -112.64694 21611 ft 406 kts 312°
2026-05-08 05:11 41.31544 -112.67499 22042 ft 409 kts 313°
2026-05-08 05:11 41.33468 -112.70306 22469 ft 412 kts 313°
2026-05-08 05:11 41.35378 -112.73085 22910 ft 413 kts 313°
2026-05-08 05:12 41.37323 -112.75915 23326 ft 416 kts 313°
2026-05-08 05:12 41.39277 -112.78766 23661 ft 418 kts 313°
2026-05-08 05:12 41.41243 -112.81661 23935 ft 422 kts 313°
2026-05-08 05:12 41.43193 -112.84594 24279 ft 424 kts 312°
2026-05-08 05:13 41.45133 -112.87566 24632 ft 425 kts 312°
2026-05-08 05:13 41.47066 -112.90549 24981 ft 426 kts 312°
2026-05-08 05:13 41.49005 -112.93544 25342 ft 426 kts 312°
2026-05-08 05:13 41.50943 -112.96535 25717 ft 426 kts 312°
2026-05-08 05:14 41.52891 -112.99530 26052 ft 427 kts 312°
2026-05-08 05:14 41.54842 -113.02522 26372 ft 428 kts 312°
2026-05-08 05:14 41.56798 -113.05526 26674 ft 428 kts 312°
2026-05-08 05:14 41.58755 -113.08536 26965 ft 429 kts 312°
2026-05-08 05:15 41.60716 -113.11555 27234 ft 430 kts 312°
2026-05-08 05:15 41.62659 -113.14546 27480 ft 432 kts 312°
2026-05-08 05:15 41.64626 -113.17582 27747 ft 432 kts 312°
2026-05-08 05:15 41.66589 -113.20619 28052 ft 431 kts 312°
2026-05-08 05:16 41.68544 -113.23648 28411 ft 429 kts 312°
2026-05-08 05:16 41.70491 -113.26669 28775 ft 428 kts 312°
2026-05-08 05:16 41.72425 -113.29676 29167 ft 425 kts 312°
2026-05-08 05:16 41.74352 -113.32669 29545 ft 423 kts 312°
2026-05-08 05:17 41.76271 -113.35649 29924 ft 421 kts 312°
2026-05-08 05:17 41.78184 -113.38615 30248 ft 419 kts 312°
2026-05-08 05:17 41.80090 -113.41572 30532 ft 418 kts 312°
2026-05-08 05:17 41.81987 -113.44522 30797 ft 418 kts 312°
2026-05-08 05:18 41.83880 -113.47476 31070 ft 417 kts 312°
2026-05-08 05:18 41.85770 -113.50432 31368 ft 416 kts 312°
2026-05-08 05:18 41.87652 -113.53378 31678 ft 415 kts 312°
2026-05-08 05:18 41.89504 -113.56273 31995 ft 414 kts 312°
2026-05-08 05:19 41.91381 -113.59206 32323 ft 412 kts 312°
2026-05-08 05:19 41.93244 -113.62121 32668 ft 410 kts 312°
2026-05-08 05:19 41.95094 -113.65028 33028 ft 408 kts 312°
2026-05-08 05:19 41.96931 -113.67922 33342 ft 406 kts 312°
2026-05-08 05:20 41.98764 -113.70808 33665 ft 405 kts 312°
2026-05-08 05:20 42.00594 -113.73685 33908 ft 405 kts 312°
2026-05-08 05:20 42.02434 -113.76576 33952 ft 407 kts 312°
2026-05-08 05:21 42.06100 -113.82343 33963 ft 408 kts 312°
2026-05-08 05:21 42.09794 -113.88174 33964 ft 409 kts 312°
2026-05-08 05:22 42.12858 -113.93031 33968 ft 409 kts 312°
2026-05-08 05:22 42.16541 -113.98870 33960 ft 409 kts 312°
2026-05-08 05:23 42.20232 -114.04715 33963 ft 409 kts 312°
2026-05-08 05:23 42.23931 -114.10562 33926 ft 410 kts 311°
2026-05-08 05:24 42.27633 -114.16424 33933 ft 410 kts 311°
2026-05-08 05:24 42.31338 -114.22303 33935 ft 411 kts 311°
2026-05-08 05:25 42.35038 -114.28214 33685 ft 412 kts 311°
2026-05-08 05:25 42.36891 -114.31179 33416 ft 412 kts 311°
2026-05-08 05:25 42.38745 -114.34145 33154 ft 413 kts 311°
2026-05-08 05:25 42.40603 -114.37113 32892 ft 414 kts 311°
2026-05-08 05:26 42.42469 -114.40092 32734 ft 415 kts 311°
2026-05-08 05:26 42.44340 -114.43081 32477 ft 416 kts 311°
2026-05-08 05:26 42.46189 -114.46041 32226 ft 417 kts 311°
2026-05-08 05:26 42.48065 -114.49054 31972 ft 419 kts 311°
2026-05-08 05:27 42.49943 -114.52069 31733 ft 420 kts 311°
2026-05-08 05:27 42.51838 -114.55097 31484 ft 420 kts 311°
2026-05-08 05:27 42.53738 -114.58119 31221 ft 422 kts 311°
2026-05-08 05:27 42.55651 -114.61158 30965 ft 425 kts 311°
2026-05-08 05:28 42.57571 -114.64216 30711 ft 426 kts 311°
2026-05-08 05:28 42.59494 -114.67291 30460 ft 427 kts 311°
2026-05-08 05:28 42.61418 -114.70371 30211 ft 428 kts 311°
2026-05-08 05:28 42.63322 -114.73425 29959 ft 429 kts 311°
2026-05-08 05:29 42.65254 -114.76524 29673 ft 430 kts 311°
2026-05-08 05:29 42.67186 -114.79627 29393 ft 431 kts 311°
2026-05-08 05:29 42.69123 -114.82743 29102 ft 432 kts 310°
2026-05-08 05:29 42.71063 -114.85869 28847 ft 433 kts 310°
2026-05-08 05:30 42.73027 -114.88994 28560 ft 435 kts 311°
2026-05-08 05:30 42.75066 -114.92043 28289 ft 436 kts 313°
2026-05-08 05:30 42.77167 -114.95034 28020 ft 438 kts 314°
2026-05-08 05:30 42.79296 -114.98001 27755 ft 439 kts 314°
2026-05-08 05:31 42.81435 -115.00977 27501 ft 440 kts 314°
2026-05-08 05:31 42.83553 -115.03952 26518 ft 434 kts 314°
2026-05-08 05:31 42.85659 -115.06945 24681 ft 443 kts 313°
2026-05-08 05:31 42.87799 -115.10031 23700 ft 451 kts 313°
2026-05-08 05:32 42.89955 -115.13159 22729 ft 452 kts 312°
2026-05-08 05:32 42.92092 -115.16265 21678 ft 446 kts 312°
2026-05-08 05:32 42.94203 -115.19340 20746 ft 442 kts 312°
2026-05-08 05:32 42.96295 -115.22388 19895 ft 438 kts 313°
2026-05-08 05:33 42.98367 -115.25406 19065 ft 434 kts 313°
2026-05-08 05:33 43.00425 -115.28395 18257 ft 430 kts 313°
2026-05-08 05:33 43.02469 -115.31365 17353 ft 427 kts 313°
2026-05-08 05:33 43.04463 -115.34263 16468 ft 418 kts 313°
2026-05-08 05:34 43.06419 -115.37111 15599 ft 405 kts 313°
2026-05-08 05:34 43.08310 -115.39870 14961 ft 387 kts 313°
2026-05-08 05:34 43.10080 -115.42453 14724 ft 358 kts 313°
2026-05-08 05:34 43.11717 -115.44846 14491 ft 333 kts 313°
2026-05-08 05:35 43.13276 -115.47127 14264 ft 323 kts 313°
2026-05-08 05:35 43.14792 -115.49351 14036 ft 316 kts 313°
2026-05-08 05:35 43.16277 -115.51529 13807 ft 309 kts 313°
2026-05-08 05:35 43.17728 -115.53655 13560 ft 302 kts 313°
2026-05-08 05:36 43.19147 -115.55732 13299 ft 296 kts 313°
2026-05-08 05:36 43.20539 -115.57772 13048 ft 290 kts 312°
2026-05-08 05:36 43.21904 -115.59776 12788 ft 285 kts 312°
2026-05-08 05:36 43.23254 -115.61756 12531 ft 282 kts 312°
2026-05-08 05:37 43.24589 -115.63715 12280 ft 281 kts 312°
2026-05-08 05:37 43.25903 -115.65644 12030 ft 279 kts 312°
2026-05-08 05:37 43.27226 -115.67588 11777 ft 278 kts 312°
2026-05-08 05:37 43.28583 -115.69475 11537 ft 277 kts 315°
2026-05-08 05:38 43.29981 -115.71285 11301 ft 276 kts 316°
2026-05-08 05:38 43.31392 -115.73065 11018 ft 275 kts 316°
2026-05-08 05:38 43.32811 -115.74848 10585 ft 277 kts 316°
2026-05-08 05:38 43.34225 -115.76635 10221 ft 275 kts 315°
2026-05-08 05:39 43.35604 -115.78392 10086 ft 265 kts 315°
2026-05-08 05:39 43.36927 -115.80084 9964 ft 255 kts 315°
2026-05-08 05:39 43.38214 -115.81732 9760 ft 250 kts 315°
2026-05-08 05:39 43.39461 -115.83394 9426 ft 249 kts 314°
2026-05-08 05:40 43.40683 -115.85075 9070 ft 248 kts 314°
2026-05-08 05:40 43.41893 -115.86756 8724 ft 246 kts 314°
2026-05-08 05:40 43.43095 -115.88427 8384 ft 245 kts 314°
2026-05-08 05:40 43.44295 -115.90089 8043 ft 243 kts 315°
2026-05-08 05:41 43.45483 -115.91734 7704 ft 241 kts 315°
2026-05-08 05:41 43.46600 -115.93439 7368 ft 240 kts 304°
2026-05-08 05:41 43.47355 -115.95477 7044 ft 239 kts 297°
2026-05-08 05:41 43.48061 -115.97541 6706 ft 237 kts 297°
2026-05-08 05:42 43.48755 -115.99569 6381 ft 231 kts 297°
2026-05-08 05:42 43.49426 -116.01529 6048 ft 227 kts 297°
2026-05-08 05:42 43.50093 -116.03472 5733 ft 222 kts 297°
2026-05-08 05:42 43.50751 -116.05380 5417 ft 218 kts 297°
2026-05-08 05:43 43.51396 -116.07249 5140 ft 214 kts 296°
2026-05-08 05:43 43.52021 -116.09064 4874 ft 202 kts 296°
2026-05-08 05:43 43.52597 -116.10742 4567 ft 186 kts 295°
2026-05-08 05:43 43.53095 -116.12307 4300 ft 172 kts 291°
2026-05-08 05:44 43.53502 -116.13772 4076 ft 156 kts 291°
2026-05-08 05:44 43.53893 -116.15127 3844 ft 149 kts 295°
2026-05-08 05:44 43.54319 -116.16406 3632 ft 146 kts 296°
2026-05-08 05:44 43.54750 -116.17667 3431 ft 145 kts 297°
2026-05-08 05:45 43.55176 -116.18902 3220 ft 144 kts 297°
2026-05-08 05:45 43.55605 -116.20147 3021 ft 144 kts 295°
2026-05-08 05:45 43.56022 -116.21399 2884 ft 140 kts 295°
2026-05-08 05:45 43.56368 -116.22397 2881 ft 90 kts 295°
2026-05-08 05:46 43.56564 -116.22961 2883 ft 40 kts 296°
2026-05-08 05:46 43.56627 -116.23142 2882 ft 11 kts 296°
2026-05-08 05:46 43.56693 -116.23165 2881 ft 11 kts 20°
2026-05-08 05:46 43.56771 -116.23114 2880 ft 14 kts 27°
2026-05-08 05:47 43.56862 -116.23052 2879 ft 9 kts 26°
2026-05-08 05:47 43.56903 -116.23017 2881 ft 4 kts 57°
2026-05-08 05:47 43.56899 -116.22980 2881 ft 4 kts 108°
2026-05-08 05:47 43.56889 -116.22952 2881 ft 5 kts 116°
2026-05-08 05:48 43.56870 -116.22897 2881 ft 6 kts 115°
2026-05-08 05:48 43.56855 -116.22853 2881 ft 4 kts 115°
2026-05-08 05:48 43.56844 -116.22823 2881 ft 3 kts 115°
2026-05-08 05:48 43.56828 -116.22777 2881 ft 7 kts 116°
2026-05-08 05:49 43.56801 -116.22696 2881 ft 11 kts 115°
2026-05-08 05:49 43.56761 -116.22582 2881 ft 15 kts 114°
2026-05-08 05:49 43.56709 -116.22428 2881 ft 20 kts 112°
2026-05-08 05:49 43.56655 -116.22265 2881 ft 15 kts 116°
2026-05-08 05:50 43.56635 -116.22207 2881 ft 4 kts 111°
2026-05-08 05:50 43.56641 -116.22179 2881 ft 3 kts 53°
2026-05-08 05:50 43.56664 -116.22165 2881 ft 3 kts 20°
2026-05-08 05:50 43.56687 -116.22153 2881 ft 4 kts 20°
2026-05-08 05:51 43.56707 -116.22141 2881 ft 3 kts 23°
2026-05-08 05:51 43.56724 -116.22131 2881 ft 2 kts 24°
2026-05-08 05:51 43.56734 -116.22125 2881 ft 2 kts 24°
2026-05-08 05:51 43.56742 -116.22120 2881 ft 0 kts 24°